Probability
87 97 100 100 100 100 100 100 100 100 100 100 100 100 100 100 100 100 100 97 100 100 100 97 97 94 94 94 94 97 97 90 94 84 87 87 81 87 90 94 94 90 97
94 100 100 100 100 100 100 100 100 100 100 100 100 100 100 100 100 100 100 100 100 100 100 97 97 97 97 97 97 97 97 97 97 94 84 87 90 94 94 94 97 97 97
97 100 100 100 100 100 100 100 100 100 100 100 100 100 100 100 100 100 100 100 100 100 100 100 97 97 97 97 97 97 97 97 97 90 87 74 81 94 94 94 97 97 97
100 100 100 100 100 100 100 100 100 100 100 100 100 100 100 100 100 100 100 100 100 100 100 100 100 97 97 97 97 97 94 100 97 94 71 68 74 87 90 90 94 97 94
100 100 100 100 100 100 100 100 100 100 100 100 100 100 100 100 100 100 100 100 100 100 100 97 97 94 94 97 97 94 97 97 97 77 55 74 81 94 94 94 90 90 94
100 100 100 100 100 100 100 100 100 100 100 100 100 100 100 100 100 97 100 100 100 100 94 94 94 97 94 94 94 94 97 94 90 58 61 71 84 94 94 94 90 90 94
100 100 100 100 100 100 100 100 100 100 100 100 100 100 100 100 100 100 97 100 100 97 94 87 94 97 94 94 90 87 90 90 35 61 65 74 90 97 97 97 94 90 94
100 100 100 100 100 100 100 100 100 100 100 100 100 100 100 100 100 100 100 100 100 100 100 94 90 90 90 94 94 87 84 87 61 52 68 71 87 97 100 94 94 90 94
97 100 100 100 100 100 100 100 100 100 100 100 100 100 100 100 97 97 97 100 100 100 100 100 100 97 90 90 97 100 90 81 26 52 55 68 94 100 97 97 94 97 90
97 97 94 97 100 100 100 100 100 100 100 100 100 100 100 100 100 100 100 100 97 100 97 94 90 94 100 97 94 100 100 74 26 45 65 71 94 97 100 97 97 94 94
94 94 94 94 97 100 100 100 100 97 100 100 100 100 100 100 94 100 100 100 97 100 94 94 97 94 97 97 94 97 87 32 29 39 55 77 97 97 97 97 97 97 94
84 81 87 90 90 94 94 90 90 90 87 90 94 94 90 84 84 97 100 100 97 94 94 94 97 97 97 77 71 81 52 39 26 39 55 87 94 97 97 100 97 97 94
77 81 84 84 84 87 87 90 87 87 87 87 87 87 77 71 65 77 77 81 87 87 87 81 90 87 77 55 45 42 32 32 32 29 39 77 94 94 97 100 100 97 97
68 68 74 74 77 81 87 81 81 84 84 81 81 71 55 48 45 55 55 65 58 65 71 68 65 65 61 52 42 35 32 32 29 23 16 68 87 94 94 100 97 97 94
65 68 65 68 68 71 74 74 81 77 77 68 65 61 55 45 32 35 35 39 42 42 48 48 45 45 48 42 42 45 29 19 23 26 16 55 84 84 90 90 90 90 90
55 61 58 58 58 61 61 61 55 55 61 58 55 48 42 35 35 29 23 26 26 32 32 26 32 35 32 35 29 32 26 16 16 16 26 29 61 84 87 94 87 81 87
39 45 48 48 52 55 52 48 39 42 39 39 32 29 26 29 23 16 13 13 16 16 13 6 6 6 10 10 6 16 23 16 13 13 23 26 32 61 74 81 74 71 77
32 32 35 48 45 39 35 29 16 16 16 13 6 10 26 26 19 10 6 6 6 13 10 6 3 3 3 3 3 3 3 10 13 10 16 16 23 23 55 68 74 68 71
23 32 32 42 39 32 23 13 16 13 0 0 3 3 3 6 10 0 3 3 3 3 3 0 0 0 0 0 0 0 0 0 3 3 6 6 13 16 26 35 58 65 71
19 23 29 26 29 19 10 3 3 0 0 0 3 3 3 3 3 0 0 0 0 0 0 0 0 0 0 0 0 0 0 0 0 0 0 0 3 6 16 16 29 42 55
16 13 16 16 13 13 6 3 3 3 0 0 0 0 3 3 3 0 3 0 0 0 0 0 0 0 0 0 0 0 0 0 0 0 0 0 0 0 0 6 13 16 26
10 10 13 13 6 6 3 0 0 0 0 0 0 0 0 0 0 0 0 0 0 0 0 0 0 0 0 0 0 0 0 0 0 0 0 0 0 0 0 0 0 0 3
6 6 6 6 3 3 0 0 0 0 0 0 0 0 0 0 0 0 0 0 0 0 0 0 0 0 0 0 0 0 0 0 0 0 0 0 0 0 0 0 0 3 3
6 6 6 3 3 0 0 0 0 0 0 0 0 0 0 0 0 0 0 0 0 0 0 0 0 0 0 0 0 0 0 0 0 0 0 0 0 0 0 0 0 0 3
6 6 3 3 0 0 0 0 0 0 0 0 0 0 0 0 0 0 0 0 0 0 0 0 0 0 0 0 0 0 0 0 0 0 0 0 0 0 0 0 0 0 0
6 6 3 0 0 0 0 0 0 0 0 0 0 0 0 0 0 0 0 0 0 0 0 0 0 0 0 0 0 0 0 0 0 0 0 0 0 0 0 0 0 0 0
Height
5896 5895 5896 5895 5895 5895 5894 5894 5895 5895 5896 5896 5896 5897 5897 5897 5897 5897 5897 5897 5897 5897 5897 5897 5897 5897 5897 5897 5897 5897 5897 5897 5897 5897 5897 5897 5897 5898 5898 5898 5899 5899 5900
5895 5895 5895 5895 5895 5894 5894 5895 5895 5895 5896 5896 5897 5897 5897 5897 5897 5897 5898 5897 5898 5898 5897 5898 5898 5898 5897 5897 5897 5897 5897 5897 5897 5898 5898 5898 5899 5899 5899 5899 5900 5900 5901
5894 5895 5895 5894 5894 5894 5894 5894 5894 5895 5895 5896 5896 5897 5897 5897 5897 5897 5898 5898 5897 5897 5897 5897 5898 5898 5898 5898 5898 5898 5898 5898 5898 5898 5898 5899 5899 5900 5900 5901 5901 5901 5902
5894 5894 5894 5894 5894 5894 5894 5894 5894 5894 5895 5895 5896 5896 5896 5897 5897 5897 5897 5897 5897 5897 5897 5897 5897 5897 5898 5898 5898 5898 5898 5898 5898 5899 5899 5900 5900 5901 5901 5902 5902 5902 5903
5893 5893 5893 5893 5893 5893 5893 5893 5893 5894 5894 5894 5895 5895 5895 5896 5896 5896 5896 5896 5897 5897 5896 5896 5897 5897 5897 5897 5898 5898 5898 5898 5898 5899 5899 5900 5900 5901 5902 5902 5903 5903 5904
5892 5892 5893 5893 5892 5893 5893 5893 5893 5893 5893 5893 5894 5894 5894 5895 5895 5895 5895 5895 5896 5896 5896 5896 5896 5896 5896 5896 5897 5897 5898 5898 5898 5899 5899 5900 5901 5901 5902 5903 5903 5904 5905
5890 5891 5891 5892 5892 5892 5892 5892 5892 5892 5892 5892 5892 5893 5893 5893 5893 5893 5893 5894 5894 5894 5894 5894 5894 5895 5895 5895 5895 5896 5897 5897 5898 5898 5899 5900 5900 5901 5902 5903 5903 5904 5905
5888 5888 5889 5890 5890 5890 5891 5890 5891 5891 5891 5891 5891 5891 5891 5891 5891 5891 5891 5892 5892 5892 5892 5892 5893 5893 5894 5894 5894 5895 5895 5896 5897 5898 5898 5899 5900 5900 5901 5902 5903 5904 5905
5886 5887 5887 5888 5888 5889 5889 5889 5889 5889 5889 5889 5890 5890 5890 5890 5890 5889 5889 5889 5889 5889 5889 5890 5890 5891 5891 5892 5892 5893 5893 5894 5895 5896 5897 5898 5899 5899 5900 5901 5902 5904 5905
5884 5884 5885 5885 5886 5886 5887 5886 5886 5887 5887 5887 5888 5888 5888 5887 5887 5887 5887 5887 5886 5886 5886 5886 5887 5888 5889 5889 5890 5890 5891 5892 5893 5894 5895 5896 5897 5898 5899 5900 5902 5903 5904
5881 5881 5882 5882 5883 5883 5884 5884 5884 5884 5885 5885 5885 5885 5885 5885 5885 5884 5884 5883 5883 5883 5883 5883 5883 5884 5885 5886 5887 5888 5888 5889 5890 5892 5893 5894 5895 5897 5898 5899 5900 5901 5903
5877 5878 5878 5879 5880 5880 5881 5881 5881 5882 5882 5882 5882 5882 5882 5882 5881 5881 5880 5880 5880 5880 5880 5880 5880 5880 5881 5882 5883 5884 5885 5886 5887 5889 5890 5892 5893 5894 5895 5897 5898 5900 5901
5872 5873 5875 5876 5876 5877 5878 5878 5878 5879 5879 5879 5879 5878 5878 5878 5878 5877 5876 5876 5876 5876 5876 5876 5876 5877 5877 5878 5879 5880 5881 5883 5884 5885 5887 5888 5890 5891 5892 5894 5896 5897 5899
5868 5870 5871 5872 5873 5874 5874 5875 5875 5876 5876 5876 5875 5875 5874 5874 5874 5874 5873 5872 5872 5872 5872 5872 5872 5873 5873 5874 5876 5876 5877 5879 5880 5882 5883 5885 5886 5888 5889 5891 5892 5894 5896
5864 5866 5868 5869 5869 5870 5871 5871 5872 5872 5872 5872 5872 5871 5871 5870 5870 5870 5870 5869 5868 5868 5868 5868 5869 5869 5870 5871 5872 5872 5873 5874 5876 5878 5879 5881 5882 5884 5885 5887 5889 5890 5892
5861 5863 5864 5866 5867 5867 5868 5868 5868 5869 5869 5869 5868 5868 5868 5867 5867 5867 5866 5866 5865 5865 5865 5865 5865 5865 5866 5866 5867 5868 5869 5870 5871 5873 5875 5877 5878 5879 5881 5883 5885 5886 5888
5857 5859 5861 5863 5864 5864 5865 5865 5865 5865 5865 5865 5865 5865 5865 5864 5864 5863 5863 5862 5862 5861 5861 5861 5861 5861 5862 5862 5863 5864 5865 5866 5867 5868 5870 5872 5873 5875 5876 5878 5880 5882 5884
5853 5856 5858 5860 5861 5862 5862 5862 5862 5862 5862 5862 5862 5862 5862 5861 5860 5860 5860 5859 5858 5858 5858 5858 5858 5858 5858 5858 5859 5859 5860 5861 5862 5863 5865 5867 5868 5870 5871 5873 5875 5877 5880
5852 5854 5856 5857 5858 5858 5859 5859 5859 5859 5859 5859 5859 5859 5858 5858 5857 5857 5856 5856 5855 5855 5855 5854 5854 5854 5854 5854 5854 5855 5855 5856 5857 5858 5860 5861 5863 5865 5866 5868 5870 5872 5875
5850 5852 5854 5854 5855 5856 5856 5856 5856 5857 5857 5856 5856 5855 5855 5855 5854 5853 5853 5852 5852 5851 5851 5851 5850 5850 5850 5850 5850 5850 5851 5851 5852 5853 5855 5856 5858 5859 5861 5862 5865 5867 5869
5848 5850 5851 5852 5853 5854 5854 5854 5854 5854 5854 5853 5853 5852 5852 5851 5851 5850 5849 5849 5848 5847 5847 5846 5846 5846 5845 5845 5845 5845 5846 5846 5847 5848 5849 5850 5852 5853 5855 5857 5859 5861 5864
5847 5849 5850 5851 5851 5851 5852 5852 5852 5852 5851 5851 5851 5850 5849 5848 5848 5847 5846 5845 5844 5844 5843 5842 5841 5841 5841 5840 5840 5840 5840 5841 5842 5842 5843 5844 5846 5847 5849 5850 5852 5855 5857
5846 5847 5848 5849 5849 5849 5850 5850 5850 5850 5849 5849 5848 5848 5847 5846 5845 5844 5843 5842 5841 5840 5839 5838 5837 5837 5836 5835 5835 5835 5835 5835 5835 5836 5837 5838 5839 5840 5842 5844 5846 5848 5850
5845 5846 5847 5847 5847 5848 5848 5848 5848 5848 5847 5847 5846 5845 5844 5843 5842 5841 5840 5839 5838 5836 5835 5834 5833 5832 5831 5830 5830 5829 5829 5829 5829 5829 5830 5831 5832 5833 5834 5836 5838 5840 5842
5845 5845 5846 5846 5846 5846 5846 5846 5846 5846 5846 5845 5844 5844 5842 5841 5840 5839 5837 5836 5834 5833 5831 5830 5828 5827 5826 5825 5824 5823 5822 5822 5822 5822 5822 5823 5824 5825 5827 5828 5830 5832 5835
5844 5845 5845 5846 5846 5846 5845 5845 5845 5845 5844 5844 5843 5842 5841 5839 5838 5836 5834 5833 5831 5829 5828 5826 5824 5822 5821 5819 5818 5817 5816 5815 5815 5815 5815 5815 5816 5817 5818 5820 5821 5824 5826
Wind_Speed
3 2 2 2 1 2 3 4 5 6 6 7 7 6 7 7 7 7 8 7 7 6 6 7 7 7 6 6 6 6 6 6 5 6 6 6 6 7 7 8 8 8 8
4 4 3 2 1 1 2 3 3 4 5 5 5 5 5 5 5 6 6 6 6 6 6 6 6 5 5 6 5 5 5 5 5 5 5 5 6 6 7 7 8 9 9
5 5 5 3 2 1 1 2 2 3 3 4 4 4 4 4 4 4 5 5 5 5 5 5 5 4 4 4 4 4 4 4 4 4 4 5 5 6 6 7 8 8 9
5 6 6 4 2 2 1 1 2 2 2 3 3 4 4 4 4 4 4 4 5 4 4 4 4 4 3 3 3 2 3 3 3 3 3 4 4 6 6 6 7 8 8
6 6 6 5 3 3 2 2 2 2 2 3 3 4 4 4 4 4 5 4 4 4 4 4 4 4 3 2 1 1 1 2 2 2 3 3 4 5 6 6 6 7 8
7 7 7 6 5 4 3 3 3 3 4 4 4 5 5 5 5 6 6 5 5 5 5 5 5 5 4 3 2 1 1 1 1 2 3 3 4 5 5 5 6 7 7
7 8 8 7 6 5 5 5 5 5 5 5 6 6 6 7 7 7 7 7 7 7 7 7 7 6 5 4 4 3 3 2 2 3 3 4 4 5 5 6 6 7 7
9 9 9 8 7 6 6 6 6 6 6 6 7 7 8 8 9 10 10 9 9 9 9 9 9 8 7 6 6 5 5 4 4 4 4 4 5 5 6 6 7 7 7
11 11 10 9 8 7 7 7 7 7 7 8 8 9 10 10 11 12 12 12 12 12 12 11 11 11 10 9 8 7 7 7 6 6 5 5 6 7 7 7 8 8 8
12 12 11 10 8 8 7 7 8 8 9 9 9 10 11 12 12 13 14 15 15 15 14 14 13 12 12 12 11 10 10 9 9 8 8 7 7 8 8 9 9 9 9
14 14 13 11 10 9 8 8 8 9 9 10 10 11 13 14 15 15 16 17 17 17 17 16 15 14 14 14 14 13 12 12 12 11 10 10 9 9 10 10 10 10 11
16 16 15 13 12 10 9 9 10 10 10 11 12 13 14 15 16 17 18 18 19 19 18 17 17 16 15 15 15 16 15 14 14 13 13 12 12 11 12 12 12 12 12
16 16 17 14 13 12 11 11 12 11 11 12 14 15 15 16 17 18 18 18 18 19 19 18 18 18 17 16 16 17 17 16 15 15 14 14 15 14 14 15 14 14 14
16 13 15 14 13 12 11 12 12 12 13 13 14 15 16 16 17 17 17 17 17 18 19 18 17 18 18 17 16 16 17 18 17 17 17 16 17 17 17 17 17 17 17
15 13 14 13 12 11 12 12 12 13 14 14 14 15 15 15 16 16 16 16 17 16 16 18 18 17 17 17 16 15 16 18 19 19 18 18 18 18 19 19 20 19 19
15 15 14 13 12 11 12 12 12 12 13 13 13 14 14 15 15 15 15 16 16 16 16 17 17 17 18 18 17 17 16 18 20 20 21 20 19 20 20 20 21 21 20
15 14 12 12 11 11 11 12 12 13 13 13 13 14 15 15 15 16 16 16 16 16 17 18 18 18 18 18 18 18 18 18 19 21 21 22 21 20 21 21 22 22 22
13 12 12 11 11 11 11 12 12 13 13 13 14 15 15 15 16 16 16 16 16 17 18 18 19 19 19 19 18 18 19 19 20 21 22 23 22 22 23 23 23 24 24
10 9 10 10 10 11 11 12 11 11 12 13 14 14 15 15 16 16 17 17 17 17 18 19 19 19 19 19 19 19 20 21 22 22 22 23 24 24 24 25 24 25 26
7 7 8 8 8 9 9 9 9 10 11 12 13 14 14 15 15 16 16 17 17 17 18 19 19 20 20 20 20 20 21 21 22 23 24 25 25 25 25 26 26 26 27
7 7 7 7 7 8 8 8 8 9 10 10 11 11 12 13 14 15 15 16 17 17 18 19 19 20 21 22 22 22 22 22 23 24 24 25 25 26 25 26 27 28 28
6 5 5 5 6 7 7 7 7 8 8 8 9 10 11 13 14 14 15 16 16 17 17 18 19 19 20 21 22 22 23 24 24 24 25 26 27 27 27 28 28 29 30
3 3 3 3 4 5 5 5 6 7 7 8 9 10 11 12 13 13 14 14 15 15 16 17 18 19 20 20 21 22 23 24 26 26 26 26 27 28 29 29 30 31 32
2 1 2 2 3 4 4 5 6 6 7 7 8 9 10 11 12 13 13 14 14 15 16 17 18 19 20 21 22 23 24 25 26 27 27 28 28 29 30 30 31 32 33
1 1 0 1 2 3 3 4 4 5 6 6 8 9 10 11 12 12 13 14 15 16 16 17 18 19 20 21 22 23 24 25 27 28 28 29 29 30 32 32 33 33 33
2 1 1 1 2 2 3 3 4 5 6 7 8 9 10 11 12 13 14 14 15 16 17 18 19 20 21 22 23 24 25 26 27 28 29 30 31 31 32 34 35 35 35
Wind_Direction
323 303 293 301 343 42 66 73 70 65 62 59 54 48 44 40 36 33 35 38 40 41 44 45 46 49 55 60 65 71 77 82 82 84 89 91 95 100 106 113 114 116 118
300 285 269 263 280 359 44 58 60 57 53 55 53 46 41 36 34 31 30 32 32 32 33 34 36 43 53 59 64 69 76 87 88 91 92 96 101 103 110 118 123 122 124
290 277 263 254 261 307 4 23 36 40 35 36 37 33 28 23 19 17 16 17 18 18 21 23 24 26 38 51 59 70 80 88 93 96 100 104 109 116 118 123 128 128 128
283 271 261 258 264 281 315 334 352 5 3 7 9 9 5 360 356 356 356 0 5 5 6 6 8 8 10 27 43 64 81 91 100 104 107 114 119 130 127 130 134 133 132
277 269 258 256 261 269 281 293 304 314 320 329 337 340 338 337 335 334 337 340 345 346 345 344 346 349 352 353 7 34 80 106 121 129 128 135 132 137 141 142 144 142 142
278 271 264 260 262 266 272 283 287 289 294 302 310 314 316 317 316 315 316 318 321 322 321 323 325 327 328 323 317 307 283 197 173 169 163 163 158 153 157 157 157 155 153
274 269 263 260 263 267 275 285 288 288 290 294 295 296 300 304 305 304 306 307 306 306 305 305 307 307 308 304 294 279 263 243 227 217 200 190 184 179 176 176 172 167 166
265 257 253 254 259 262 272 280 285 286 286 290 292 293 295 297 298 296 295 296 297 296 295 294 294 292 289 288 283 271 257 248 243 234 227 215 205 200 196 192 189 183 180
262 259 252 253 260 262 272 276 280 282 285 288 291 292 294 294 296 295 293 291 291 291 289 286 283 282 282 279 276 266 255 249 245 239 234 226 217 211 208 205 201 199 197
255 254 253 256 255 260 269 275 274 277 281 283 286 289 291 292 294 294 291 289 287 286 285 281 277 274 274 275 272 266 257 250 246 243 240 234 227 220 215 212 210 209 207
248 251 256 253 251 254 266 276 273 277 280 281 283 287 288 291 293 294 291 288 285 285 284 280 275 272 271 269 266 263 257 250 246 245 244 241 235 230 223 218 217 216 214
244 246 249 250 247 251 261 271 271 276 282 282 283 285 287 290 290 289 290 288 286 285 283 278 274 273 270 266 263 261 257 251 245 243 244 243 241 238 231 224 221 221 219
242 244 244 247 245 249 262 273 274 273 278 281 283 285 285 286 287 287 287 288 287 282 279 278 277 274 272 270 268 262 256 252 248 245 245 244 244 243 236 228 226 225 223
235 240 238 242 245 252 262 271 273 272 277 281 283 286 287 286 287 288 284 283 286 283 280 279 280 275 270 269 270 266 258 251 248 246 246 245 246 245 240 234 230 229 228
237 243 239 239 244 254 262 267 267 269 273 279 283 285 286 286 288 291 285 282 283 285 279 277 276 277 272 270 268 266 260 254 248 247 249 248 246 244 243 241 235 231 228
236 241 243 242 248 256 261 264 266 271 275 278 282 283 284 283 283 285 287 284 284 283 281 277 277 278 274 271 269 265 261 256 251 250 250 250 248 245 244 243 238 232 228
229 231 239 241 251 261 263 266 268 269 272 279 283 284 283 283 285 287 286 286 286 282 278 276 277 277 275 273 268 265 264 259 254 252 250 250 249 248 247 244 240 236 231
223 232 235 241 252 260 269 269 268 270 275 279 283 284 284 285 287 289 287 289 289 284 278 276 276 275 274 272 269 266 264 260 257 255 252 250 250 250 248 245 241 237 232
222 227 236 242 249 262 269 271 273 273 276 280 281 284 286 287 286 289 289 289 288 285 281 279 277 275 274 273 272 270 266 262 259 256 254 253 252 251 249 245 242 239 236
221 230 237 247 258 267 275 280 274 275 278 281 284 287 288 289 289 290 290 290 288 284 281 280 279 277 274 273 272 271 269 265 261 258 255 253 253 250 248 245 242 242 239
221 227 233 245 255 267 273 274 275 277 281 286 290 292 294 295 295 294 294 294 292 288 283 281 279 278 277 275 272 270 268 266 263 260 257 255 253 250 248 246 243 241 240
219 228 237 246 258 268 276 278 284 286 291 296 299 301 301 301 300 298 297 296 295 293 290 285 282 281 279 278 274 271 268 266 264 262 259 257 253 251 249 248 245 242 240
204 219 242 261 272 280 283 287 293 298 301 301 306 310 310 307 305 303 303 302 300 298 296 293 288 284 282 279 276 273 271 268 266 264 261 259 256 252 250 248 247 244 243
178 214 269 276 279 286 290 295 301 308 311 313 316 319 318 316 313 311 310 309 307 304 301 297 294 290 286 283 280 276 273 271 268 266 264 261 258 254 251 249 248 246 243
198 195 262 309 306 305 313 316 318 322 327 328 330 331 329 326 322 319 318 316 313 310 306 302 299 296 293 289 284 281 277 274 271 268 266 263 260 257 253 251 249 247 244
186 191 282 331 332 332 343 349 347 344 343 341 339 338 335 332 329 326 324 322 319 314 310 307 303 300 297 293 288 285 281 277 274 270 267 264 261 258 254 252 250 248 245